Location: Newark
(41.5333°N, 14.5500°E)
Time: 00:01:51
(UTC+00:00)

ISS - Visible Passes

Search period start: 19 January 2020 00:00
Search period end: 29 January 2020 00:00
Orbit: 415 x 421 km, 51.6° (Epoch: 19 January)

Date Brightness Start Highest point End Pass type
(mag) Time Alt. Az. Time Alt. Az. Time Alt. Az.
19 Jan -1.8 18:10:52 10° SW 18:12:27 25° SSW 18:12:27 25° SSW visible
20 Jan -2.8 17:23:13 10° SSW 17:26:15 32° SE 17:26:47 30° ESE visible
21 Jan -2.0 16:35:55 10° S 16:38:22 19° SE 16:40:49 10° E visible
21 Jan -2.4 18:11:35 10° WSW 18:14:00 39° W 18:14:00 39° W visible
22 Jan -3.8 17:23:28 10° SW 17:26:50 87° NW 17:28:10 34° NE visible
23 Jan -3.4 16:35:32 10° SW 16:38:50 54° SE 16:42:08 10° ENE visible
23 Jan -1.8 18:12:52 10° W 18:15:12 25° NW 18:15:12 25° NW visible
24 Jan -2.6 17:24:27 10° W 17:27:35 36° NNW 17:29:14 22° NNE visible
25 Jan -3.2 16:36:09 10° WSW 16:39:27 55° NNW 16:42:46 10° NE visible
25 Jan -1.3 18:14:25 10° WNW 18:16:09 17° NNW 18:16:09 17° NNW visible
26 Jan -1.8 17:25:51 10° WNW 17:28:29 21° NNW 17:30:04 16° NNE visible
27 Jan -2.2 16:37:19 10° W 16:40:14 27° NNW 16:43:10 10° NE visible
27 Jan -1.1 18:15:51 10° NW 18:16:54 13° NNW 18:16:54 13° NNW visible
28 Jan -1.5 17:27:21 10° NW 17:29:30 16° N 17:30:46 13° NNE visible
